This demonstration page uses our WeatherBlox Daily Observations layout. Learn more.

Left ArrowRight Arrow

34.16533, -84.80231

Hourly Observations for August 28, 2019

Temp ( °F °C ) Dew Point ( °F °C ) Humidity (%) Winds ( mph kmh ) Pressure ( in mb ) Visibility ( mi km ) Precip ( " mm )
12:53 am 00:53 Clear 74 23.3 70 21.1 88 88 Calm 29.94 1014 10 16 0.00 0.00
1:53 am 01:53 Clear 73 22.8 70 21.1 90 90 Calm 29.92 1013 10 16 0.00 0.00
2:53 am 02:53 Mostly Cloudy 73 22.8 70 21.1 90 90 Calm 29.91 1013 10 16 0.00 0.00
3:06 am 03:06 Mostly Cloudy 73 22.8 70 21.1 90 90 Calm 29.94 1014 10 16 0.00 0.00
3:27 am 03:27 Cloudy 73 22.8 70 21.1 90 90 Calm 29.94 1014 10 16 0.00 0.00
3:53 am 03:53 Cloudy 73 22.8 70 21.1 90 90 Calm 29.92 1013 10 16 0.00 0.00
4:18 am 04:18 Mostly Cloudy 72 22.2 70 21.1 94 94 Calm 29.94 1014 10 16 0.00 0.00
4:26 am 04:26 Partly Cloudy 72 22.2 69 20.6 91 91 Calm 29.94 1014 10 16 0.00 0.00
4:53 am 04:53 Partly Cloudy 72 22.2 69 20.6 91 91 Calm 29.92 1013 10 16 0.00 0.00
5:00 am 05:00 Mostly Cloudy 72 22.2 70 21.1 94 94 Calm 29.94 1014 10 16 0.00 0.00
5:11 am 05:11 Cloudy 72 22.2 70 21.1 94 94 Calm 29.94 1014 10 16 0.00 0.00
5:28 am 05:28 Mostly Cloudy 72 22.2 69 20.6 91 91 Calm 29.94 1014 9 14 0.00 0.00
5:36 am 05:36 Mostly Cloudy 71 21.7 69 20.6 94 94 Calm 29.95 1014 8 13 0.00 0.00
5:53 am 05:53 Mostly Cloudy 71 21.7 69 20.6 94 94 Calm 29.93 1014 9 14 0.00 0.00
6:02 am 06:02 Partly Cloudy 71 21.7 69 20.6 94 94 Calm 29.95 1014 9 14 0.00 0.00
6:08 am 06:08 Mostly Cloudy 71 21.7 69 20.6 94 94 Calm 29.96 1014 9 14 0.00 0.00
6:29 am 06:29 Mostly Cloudy 71 21.7 69 20.6 94 94 Calm 29.96 1014 9 14 0.00 0.00
6:46 am 06:46 Cloudy 71 21.7 69 20.6 94 94 Calm 29.97 1015 9 14 0.00 0.00
6:53 am 06:53 Cloudy 72 22.2 69 20.6 91 91 Calm 29.95 1014 8 13 0.00 0.00
7:35 am 07:35 Cloudy with Mist and Fog 72 22.2 70 21.1 94 94 Calm 29.98 1015 2 3 0.00 0.00
7:45 am 07:45 Cloudy with Fog 72 22.2 71 21.7 97 97 Calm 29.98 1015 1 1 0.00 0.00
7:53 am 07:53 Mostly Cloudy with Fog 72 22.2 71 21.7 97 97 Calm 29.96 1015 1 1 0.00 0.00
8:14 am 08:14 Cloudy with Mist and Fog 73 22.8 71 21.7 94 94 Calm 29.98 1015 2 2 0.00 0.00
8:22 am 08:22 Cloudy with Mist and Fog 73 22.8 71 21.7 94 94 Calm 29.98 1015 3 5 0.00 0.00
8:51 am 08:51 Mostly Cloudy 75 24 72 22 89 89 Calm 29.97 1015 10 16 0.00 0.00
8:53 am 08:53 Mostly Cloudy 76 24.4 71 21.7 85 85 Calm 29.96 1015 10 16 0.00 0.00
9:22 am 09:22 Mostly Cloudy 77 25 71 21.7 82 82 VRB 3 6 29.97 1015 10 16 0.00 0.00
9:45 am 09:45 Partly Cloudy 78 25.6 70 21.1 76 76 N 5 7 29.98 1015 10 16 0.00 0.00
9:50 am 09:50 Mostly Cloudy 77 25 70 21 79 79 N 5 7 29.98 1015 10 16 0.00 0.00
9:53 am 09:53 Mostly Cloudy 78 25.6 70 21.1 76 76 VRB 5 7 29.97 1015 10 16 0.00 0.00
10:21 am 10:21 Partly Cloudy 80 26.7 69 20.6 69 69 N 8 13 29.98 1015 10 16 0.00 0.00
10:39 am 10:39 Mostly Cloudy 81 27.2 70 21.1 69 69 N 9 15 29.97 1015 10 16 0.00 0.00
10:53 am 10:53 Mostly Cloudy 81 27.2 69 20.6 67 67 NNW 9 15 29.98 1015 10 16 0.00 0.00
11:37 am 11:37 Partly Cloudy 83 28.3 69 20.6 63 63 N 10 17 29.98 1015 10 16 0.00 0.00
11:53 am 11:53 Sunny 84 28.9 69 20.6 61 61 VRB 7 11 29.98 1015 10 16 0.00 0.00
12:53 pm 12:53 Sunny 86 30 67 19.4 53 53 N 9 15 29.97 1015 10 16 0.00 0.00
1:53 pm 13:53 Sunny 87 30.6 66 18.9 50 50 NNW 9 15 29.97 1015 10 16 0.00 0.00
2:53 pm 14:53 Sunny 88 31.1 64 17.8 45 45 VRB 7 11 29.96 1015 10 16 0.00 0.00
3:53 pm 15:53 Sunny 89 31.7 62 16.7 41 41 N 13 20 29.95 1014 10 16 0.00 0.00
4:53 pm 16:53 Sunny 90 32.2 63 17.2 41 41 NNW 8 13 29.95 1014 10 16 0.00 0.00
5:53 pm 17:53 Sunny 89 31.7 61 16.1 39 39 NNW 8 13 29.95 1014 10 16 0.00 0.00
6:53 pm 18:53 Sunny 86 30 62 16.7 45 45 NNW 6 9 29.95 1014 10 16 0.00 0.00
7:53 pm 19:53 Sunny 84 28.9 62 16.7 48 48 NNW 3 6 29.95 1014 10 16 0.00 0.00
8:53 pm 20:53 Clear 76 24.4 63 17.2 64 64 Calm 29.97 1015 10 16 0.00 0.00
9:53 pm 21:53 Clear 70 21.1 64 17.8 82 82 Calm 29.99 1016 10 16 0.00 0.00
10:53 pm 22:53 Clear 68 20 63 17.2 84 84 Calm 30.01 1016 10 16 0.00 0.00
11:53 pm 23:53 Clear 68 20 62 16.7 81 81 Calm 30.01 1016 10 16 0.00 0.00

Powered by AerisWeather